EW6659 Weather Reports


Display with metric or nautical units.
time (UTC)temp
F
wind
direction
speed
MPH
gust
MPH
rain 1hr
in
rain 24hr
in
rain mn
in
humidity
%
barometer
mb
20260503034550 36 262 0.0 0.0 0.00 0.00 0.00 1 1012.8
20260503033047 35 262 0.0 0.0 0.00 0.00 0.00 1 1012.9
20260503031541 35 262 0.0 0.0 0.00 0.00 0.00 1 1012.9
20260503030036 35 262 0.0 0.0 0.00 0.00 0.00 1 1012.9
20260503024533 35 262 0.0 0.0 0.00 0.00 0.00 1 1013.0
20260503023029 35 262 0.0 0.0 0.00 0.00 0.00 1 1013.0
20260503021524 35 262 0.0 0.0 0.00 0.00 0.00 1 1013.1
20260503020020 35 262 0.0 0.0 0.00 0.00 0.00 2 1013.2
20260503014516 36 262 0.0 0.0 0.00 0.00 0.00 9 1013.1
20260503013013 36 262 0.0 0.0 0.00 0.00 0.00 16 1013.2
20260503011506 37 262 0.0 0.0 0.00 0.00 0.00 25 1013.1
20260503010002 38 262 0.0 0.0 0.00 0.00 0.00 34 1013.0
20260503004558 39 262 0.0 0.0 0.00 0.00 0.00 43 1012.8
20260503003054 40 262 0.0 0.0 0.00 0.00 0.00 54 1012.8
20260503001549 41 262 0.0 0.0 0.00 0.00 0.00 57 1012.7
20260503000100 42 262 0.0 0.0 0.00 0.00 0.00 59 1012.6
20260502234543 43 316 0.0 0.0 0.00 0.00 0.00 58 1012.5
20260502233035 44 307 0.0 2.0 0.00 0.00 0.00 58 1012.4
20260502231535 44 69 0.0 1.0 0.00 0.00 0.00 58 1012.3
20260502230027 44 267 0.0 2.0 0.00 0.00 0.00 56 1012.4
20260502224522 44 272 0.0 1.0 0.00 0.00 0.00 54 1012.3
20260502223027 45 326 0.0 2.0 0.00 0.00 0.00 56 1012.2
20260502221513 45 313 0.0 9.0 0.00 0.00 0.00 55 1012.2
20260502220011 46 70 0.0 0.0 0.00 0.00 0.00 56 1012.1
20260502214506 45 330 0.0 7.0 0.00 0.00 0.00 55 1012.0
20260502213002 46 297 0.0 5.0 0.00 0.00 0.00 54 1012.1
20260502211559 46 311 0.0 3.0 0.00 0.00 0.00 53 1011.9
20260502210111 46 315 0.0 1.0 0.00 0.00 0.00 52 1011.9
20260502204550 47 301 0.0 0.0 0.00 0.00 0.00 54 1011.9
20260502203045 46 307 0.0 0.0 0.00 0.00 0.00 54 1011.9
20260502201546 46 345 0.0 1.0 0.00 0.00 0.00 55 1012.0
20260502200043 46 230 0.0 0.0 0.00 0.00 0.00 54 1012.1
20260502194536 46 293 0.0 0.0 0.00 0.00 0.00 55 1012.2
20260502193028 45 49 0.0 0.0 0.00 0.00 0.00 57 1012.3
20260502191525 45 40 0.0 5.0 0.00 0.00 0.00 56 1012.4
20260502190027 45 50 0.0 2.0 0.00 0.00 0.00 57 1012.4
20260502184515 46 316 0.0 0.0 0.00 0.00 0.00 55 1012.3
20260502183010 47 307 0.0 0.0 0.00 0.00 0.00 52 1012.3
20260502181507 47 272 0.0 2.0 0.00 0.00 0.00 50 1012.2
20260502163045 46 283 0.0 2.0 0.00 0.00 0.00 50 1012.4
20260502161530 48 347 0.0 2.0 0.00 0.00 0.00 48 1012.4
20260502151532 46 331 0.0 6.0 0.00 0.00 0.00 55 1012.7
20260502140123 44 301 0.0 1.0 0.00 0.00 0.00 54 1013.1
20260502123029 41 256 0.0 0.0 0.00 0.00 0.00 18 1013.3
20260502121520 40 314 0.0 0.0 0.00 0.00 0.00 7 1013.3
20260502114510 41 344 0.0 3.0 0.00 0.00 0.00 2 1013.2
20260502113005 41 312 0.0 2.0 0.00 0.00 0.00 1 1013.2
20260502111502 40 308 0.0 0.0 0.00 0.00 0.00 1 1012.9
20260502104553 40 68 0.0 0.0 0.00 0.00 0.00 1 1012.5
20260502103054 39 241 0.0 0.0 0.00 0.00 0.00 1 1012.5
20260502101556 39 271 0.0 0.0 0.00 0.00 0.00 1 1012.3
20260502091528 39 106 0.0 0.0 0.00 0.00 0.00 1 1011.7
20260502070104 39 72 0.0 0.0 0.00 0.00 0.00 1 1011.5
20260502064557 39 258 0.0 0.0 0.00 0.00 0.00 1 1011.3
20260502063049 39 258 0.0 0.0 0.00 0.00 0.00 1 1011.2
20260502061535 40 258 0.0 0.0 0.00 0.00 0.00 1 1011.0
20260502060031 40 258 0.0 0.0 0.00 0.00 0.00 1 1011.2
20260502054533 40 258 0.0 0.0 0.00 0.00 0.00 1 1011.6
20260502053023 40 258 0.0 0.0 0.00 0.00 0.00 1 1011.7
20260502051519 40 236 0.0 0.0 0.00 0.00 0.00 1 1011.8
20260502050020 40 280 0.0 0.0 0.00 0.00 0.00 1 1011.8
20260502044509 40 280 0.0 0.0 0.00 0.00 0.00 1 1011.7
20260502043005 40 280 0.0 0.0 0.00 0.00 0.00 1 1011.7
20260502041501 41 280 0.0 0.0 0.00 0.00 0.00 1 1011.8
20260502040057 40 280 0.0 0.0 0.00 0.00 0.00 1 1011.8